owner,sensor,date,latitude,longitude,vertical_datum,sea_water_practical_salinity,qcFlag 
SCCF RECON,ioos:station:SCCF:11:1,2019-01-01T05:00:00Z,26.4679,-82.0631,1.23,32.64,1111122 
SCCF RECON,ioos:station:SCCF:11:1,2019-01-01T06:00:00Z,26.4679,-82.0631,1.091,32.52,1111122 
SCCF RECON,ioos:station:SCCF:11:1,2019-01-01T07:00:00Z,26.4679,-82.0631,0.95,32.58,1111122 
SCCF RECON,ioos:station:SCCF:11:1,2019-01-01T08:00:00Z,26.4679,-82.0631,0.83,32.53,1111122 
SCCF RECON,ioos:station:SCCF:11:1,2019-01-01T09:00:00Z,26.4679,-82.0631,0.74,32.48,1111122 
SCCF RECON,ioos:station:SCCF:11:1,2019-01-01T10:00:00Z,26.4679,-82.0631,0.73,32.41,1111122 
SCCF RECON,ioos:station:SCCF:11:1,2019-01-01T11:00:00Z,26.4679,-82.0631,0.83,32.56,1111122 
SCCF RECON,ioos:station:SCCF:11:1,2019-01-01T12:00:00Z,26.4679,-82.0631,0.96,33.14,1111122 
SCCF RECON,ioos:station:SCCF:11:1,2019-01-01T14:00:00Z,26.4679,-82.0631,1.101,32.53,1111122 
SCCF RECON,ioos:station:SCCF:11:1,2019-01-01T15:00:00Z,26.4679,-82.0631,1.163,32.81,1111122 
SCCF RECON,ioos:station:SCCF:11:1,2019-01-01T16:00:00Z,26.4679,-82.0631,1.2,32.96,1111122 
SCCF RECON,ioos:station:SCCF:11:1,2019-01-01T17:00:00Z,26.4679,-82.0631,1.188,32.86,1111122 
SCCF RECON,ioos:station:SCCF:11:1,2019-01-01T18:00:00Z,26.4679,-82.0631,1.127,32.64,1111122 
SCCF RECON,ioos:station:SCCF:11:1,2019-01-01T19:00:00Z,26.4679,-82.0631,1.063,32.48,1111122 
SCCF RECON,ioos:station:SCCF:11:1,2019-01-01T20:00:00Z,26.4679,-82.0631,1.019,32.44,1111122 
SCCF RECON,ioos:station:SCCF:11:1,2019-01-01T21:00:00Z,26.4679,-82.0631,1.016,32.49,1111122 
SCCF RECON,ioos:station:SCCF:11:1,2019-01-01T22:00:00Z,26.4679,-82.0631,1.08,32.54,1111122 
SCCF RECON,ioos:station:SCCF:11:1,2019-01-01T23:00:00Z,26.4679,-82.0631,1.166,32.66,1111122 
SCCF RECON,ioos:station:SCCF:11:1,2019-01-02T05:00:00Z,26.4679,-82.0631,1.22,32.61,1111122 
SCCF RECON,ioos:station:SCCF:11:1,2019-01-02T06:00:00Z,26.4679,-82.0631,1.071,32.57,1111122 
SCCF RECON,ioos:station:SCCF:11:1,2019-01-02T07:00:00Z,26.4679,-82.0631,0.921,32.56,1111122 
SCCF RECON,ioos:station:SCCF:11:1,2019-01-02T08:00:00Z,26.4679,-82.0631,0.793,32.52,1111122 
SCCF RECON,ioos:station:SCCF:11:1,2019-01-02T09:00:00Z,26.4679,-82.0631,0.69,32.48,1111122 
SCCF RECON,ioos:station:SCCF:11:1,2019-01-02T10:00:00Z,26.4679,-82.0631,0.62,32.45,1111122 
SCCF RECON,ioos:station:SCCF:11:1,2019-01-02T11:00:00Z,26.4679,-82.0631,0.63,32.32,1111122 
SCCF RECON,ioos:station:SCCF:11:1,2019-01-02T12:00:00Z,26.4679,-82.0631,0.75,32.46,1111122 
SCCF RECON,ioos:station:SCCF:11:1,2019-01-02T13:00:00Z,26.4679,-82.0631,0.891,32.57,1111122 
SCCF RECON,ioos:station:SCCF:11:1,2019-01-02T14:00:00Z,26.4679,-82.0631,0.99,31.8,1111122 
SCCF RECON,ioos:station:SCCF:11:1,2019-01-02T15:00:00Z,26.4679,-82.0631,1.08,32.52,1111122 
SCCF RECON,ioos:station:SCCF:11:1,2019-01-02T16:00:00Z,26.4679,-82.0631,1.149,32.67,1111122 
SCCF RECON,ioos:station:SCCF:11:1,2019-01-02T17:00:00Z,26.4679,-82.0631,1.177,32.06,1111122 
SCCF RECON,ioos:station:SCCF:11:1,2019-01-02T18:00:00Z,26.4679,-82.0631,1.141,32.17,1111122 
SCCF RECON,ioos:station:SCCF:11:1,2019-01-02T19:00:00Z,26.4679,-82.0631,1.077,32.23,1111122 
SCCF RECON,ioos:station:SCCF:11:1,2019-01-02T20:00:00Z,26.4679,-82.0631,1.053,32.3,1111122 
SCCF RECON,ioos:station:SCCF:11:1,2019-01-02T21:00:00Z,26.4679,-82.0631,1.041,32.37,1111122 
SCCF RECON,ioos:station:SCCF:11:1,2019-01-02T22:00:00Z,26.4679,-82.0631,1.054,32.3,1111122 
SCCF RECON,ioos:station:SCCF:11:1,2019-01-02T23:00:00Z,26.4679,-82.0631,1.12,32.3,1111122 
SCCF RECON,ioos:station:SCCF:11:1,2019-01-03T05:00:00Z,26.4679,-82.0631,1.32,33.64,1111122 
SCCF RECON,ioos:station:SCCF:11:1,2019-01-03T06:00:00Z,26.4679,-82.0631,1.2,32.48,1111122 
SCCF RECON,ioos:station:SCCF:11:1,2019-01-03T07:00:00Z,26.4679,-82.0631,1.05,32.46,1111122 
SCCF RECON,ioos:station:SCCF:11:1,2019-01-03T08:00:00Z,26.4679,-82.0631,0.908,32.46,1111122 
SCCF RECON,ioos:station:SCCF:11:1,2019-01-03T09:00:00Z,26.4679,-82.0631,0.761,32.45,1111122 
SCCF RECON,ioos:station:SCCF:11:1,2019-01-03T10:00:00Z,26.4679,-82.0631,0.641,32.42,1111122 
SCCF RECON,ioos:station:SCCF:11:1,2019-01-03T11:00:00Z,26.4679,-82.0631,0.57,32.42,1111122 
SCCF RECON,ioos:station:SCCF:11:1,2019-01-03T12:00:00Z,26.4679,-82.0631,0.618,32.37,1111122 
SCCF RECON,ioos:station:SCCF:11:1,2019-01-03T13:00:00Z,26.4679,-82.0631,0.742,32.43,1111122 
SCCF RECON,ioos:station:SCCF:11:1,2019-01-03T14:00:00Z,26.4679,-82.0631,0.89,32.54,1111122 
SCCF RECON,ioos:station:SCCF:11:1,2019-01-03T15:00:00Z,26.4679,-82.0631,0.99,32.54,1111122 
SCCF RECON,ioos:station:SCCF:11:1,2019-01-03T16:00:00Z,26.4679,-82.0631,1.064,32.71,1111122 
SCCF RECON,ioos:station:SCCF:11:1,2019-01-03T17:00:00Z,26.4679,-82.0631,1.12,32.79,1111122 
SCCF RECON,ioos:station:SCCF:11:1,2019-01-03T18:00:00Z,26.4679,-82.0631,1.109,32.71,1111122 
SCCF RECON,ioos:station:SCCF:11:1,2019-01-03T19:00:00Z,26.4679,-82.0631,1.082,32.7,1111122 
SCCF RECON,ioos:station:SCCF:11:1,2019-01-03T20:00:00Z,26.4679,-82.0631,1.069,32.7,1111122 
SCCF RECON,ioos:station:SCCF:11:1,2019-01-03T21:00:00Z,26.4679,-82.0631,1.01,32.43,1111122 
SCCF RECON,ioos:station:SCCF:11:1,2019-01-03T22:00:00Z,26.4679,-82.0631,0.963,32.41,1111122 
SCCF RECON,ioos:station:SCCF:11:1,2019-01-03T23:00:00Z,26.4679,-82.0631,0.978,32.48,1111122 
SCCF RECON,ioos:station:SCCF:11:1,2019-01-04T05:00:00Z,26.4679,-82.0631,1.363,33.76,1111122 
SCCF RECON,ioos:station:SCCF:11:1,2019-01-04T06:00:00Z,26.4679,-82.0631,1.27,32.86,1111122 
SCCF RECON,ioos:station:SCCF:11:1,2019-01-04T07:00:00Z,26.4679,-82.0631,1.12,32.71,1111122 
SCCF RECON,ioos:station:SCCF:11:1,2019-01-04T08:00:00Z,26.4679,-82.0631,0.99,32.69,1111122 
SCCF RECON,ioos:station:SCCF:11:1,2019-01-04T09:00:00Z,26.4679,-82.0631,0.845,32.61,1111122 
SCCF RECON,ioos:station:SCCF:11:1,2019-01-04T10:00:00Z,26.4679,-82.0631,0.719,32.57,1111122 
SCCF RECON,ioos:station:SCCF:11:1,2019-01-04T11:00:00Z,26.4679,-82.0631,0.62,32.54,1111122 
SCCF RECON,ioos:station:SCCF:11:1,2019-01-04T12:00:00Z,26.4679,-82.0631,0.59,32.45,1111122 
SCCF RECON,ioos:station:SCCF:11:1,2019-01-04T13:00:00Z,26.4679,-82.0631,0.681,32.59,1111122 
SCCF RECON,ioos:station:SCCF:11:1,2019-01-04T14:00:00Z,26.4679,-82.0631,0.829,33.18,1111122 
SCCF RECON,ioos:station:SCCF:11:1,2019-01-04T15:00:00Z,26.4679,-82.0631,0.981,33.12,1111122 
SCCF RECON,ioos:station:SCCF:11:1,2019-01-04T16:00:00Z,26.4679,-82.0631,1.111,33.25,1111122 
SCCF RECON,ioos:station:SCCF:11:1,2019-01-04T17:00:00Z,26.4679,-82.0631,1.202,33.48,1111122 
SCCF RECON,ioos:station:SCCF:11:1,2019-01-04T18:00:00Z,26.4679,-82.0631,1.237,33.83,1111122 
SCCF RECON,ioos:station:SCCF:11:1,2019-01-04T19:00:00Z,26.4679,-82.0631,1.247,33.69,1111122 
SCCF RECON,ioos:station:SCCF:11:1,2019-01-04T20:00:00Z,26.4679,-82.0631,1.211,33.95,1111122 
SCCF RECON,ioos:station:SCCF:11:1,2019-01-04T21:00:00Z,26.4679,-82.0631,1.17,33.51,1111122 
SCCF RECON,ioos:station:SCCF:11:1,2019-01-04T22:00:00Z,26.4679,-82.0631,1.135,33.48,1111122 
SCCF RECON,ioos:station:SCCF:11:1,2019-01-04T23:00:00Z,26.4679,-82.0631,1.11,33.22,1111122 
SCCF RECON,ioos:station:SCCF:11:1,2019-01-05T05:00:00Z,26.4679,-82.0631,1.446,33.66,1111122 
SCCF RECON,ioos:station:SCCF:11:1,2019-01-05T06:00:00Z,26.4679,-82.0631,1.369,33.59,1111122 
SCCF RECON,ioos:station:SCCF:11:1,2019-01-05T07:00:00Z,26.4679,-82.0631,1.223,33.23,1111122 
SCCF RECON,ioos:station:SCCF:11:1,2019-01-05T08:00:00Z,26.4679,-82.0631,1.06,33.18,1111122 
SCCF RECON,ioos:station:SCCF:11:1,2019-01-05T09:00:00Z,26.4679,-82.0631,0.92,33.1,1111122 
SCCF RECON,ioos:station:SCCF:11:1,2019-01-05T10:00:00Z,26.4679,-82.0631,0.8,33.0,1111122 
SCCF RECON,ioos:station:SCCF:11:1,2019-01-05T11:00:00Z,26.4679,-82.0631,0.69,32.96,1111122 
SCCF RECON,ioos:station:SCCF:11:1,2019-01-05T12:00:00Z,26.4679,-82.0631,0.589,32.87,1111122 
SCCF RECON,ioos:station:SCCF:11:1,2019-01-05T13:00:00Z,26.4679,-82.0631,0.571,32.75,1111122 
SCCF RECON,ioos:station:SCCF:11:1,2019-01-05T14:00:00Z,26.4679,-82.0631,0.69,32.83,1111122 
SCCF RECON,ioos:station:SCCF:11:1,2019-01-05T15:00:00Z,26.4679,-82.0631,0.861,32.94,1111122 
SCCF RECON,ioos:station:SCCF:11:1,2019-01-05T16:00:00Z,26.4679,-82.0631,1.02,32.91,1111122 
SCCF RECON,ioos:station:SCCF:11:1,2019-01-05T17:00:00Z,26.4679,-82.0631,1.119,32.99,1111122 
SCCF RECON,ioos:station:SCCF:11:1,2019-01-05T18:00:00Z,26.4679,-82.0631,1.218,33.04,1111122 
SCCF RECON,ioos:station:SCCF:11:1,2019-01-05T19:00:00Z,26.4679,-82.0631,1.185,32.92,1111122 
SCCF RECON,ioos:station:SCCF:11:1,2019-01-05T20:00:00Z,26.4679,-82.0631,1.105,32.91,1111122 
SCCF RECON,ioos:station:SCCF:11:1,2019-01-05T21:00:00Z,26.4679,-82.0631,1.029,32.88,1111122 
SCCF RECON,ioos:station:SCCF:11:1,2019-01-05T22:00:00Z,26.4679,-82.0631,1.005,32.84,1111122 
SCCF RECON,ioos:station:SCCF:11:1,2019-01-05T23:00:00Z,26.4679,-82.0631,0.995,32.78,1111122 
SCCF RECON,ioos:station:SCCF:11:1,2019-01-06T05:00:00Z,26.4679,-82.0631,1.375,32.13,1111122 
SCCF RECON,ioos:station:SCCF:11:1,2019-01-06T06:00:00Z,26.4679,-82.0631,1.32,32.26,1111122 
SCCF RECON,ioos:station:SCCF:11:1,2019-01-06T07:00:00Z,26.4679,-82.0631,1.199,32.42,1111122 
SCCF RECON,ioos:station:SCCF:11:1,2019-01-06T08:00:00Z,26.4679,-82.0631,1.05,32.63,1111122 
SCCF RECON,ioos:station:SCCF:11:1,2019-01-06T09:00:00Z,26.4679,-82.0631,0.917,32.64,1111122 
SCCF RECON,ioos:station:SCCF:11:1,2019-01-06T10:00:00Z,26.4679,-82.0631,0.791,32.72,1111122 
SCCF RECON,ioos:station:SCCF:11:1,2019-01-06T11:00:00Z,26.4679,-82.0631,0.652,32.75,1111122 
SCCF RECON,ioos:station:SCCF:11:1,2019-01-06T12:00:00Z,26.4679,-82.0631,0.544,32.8,1111122 
SCCF RECON,ioos:station:SCCF:11:1,2019-01-06T13:00:00Z,26.4679,-82.0631,0.481,32.8,1111122 
SCCF RECON,ioos:station:SCCF:11:1,2019-01-06T14:00:00Z,26.4679,-82.0631,0.52,32.49,1111122 
SCCF RECON,ioos:station:SCCF:11:1,2019-01-06T15:00:00Z,26.4679,-82.0631,0.64,32.77,1111122 
SCCF RECON,ioos:station:SCCF:11:1,2019-01-06T16:00:00Z,26.4679,-82.0631,0.781,32.0,1111122 
SCCF RECON,ioos:station:SCCF:11:1,2019-01-06T17:00:00Z,26.4679,-82.0631,0.922,31.95,1111122 
SCCF RECON,ioos:station:SCCF:11:1,2019-01-06T18:00:00Z,26.4679,-82.0631,1.02,31.95,1111122 
SCCF RECON,ioos:station:SCCF:11:1,2019-01-06T19:00:00Z,26.4679,-82.0631,1.091,30.5,1111122 
SCCF RECON,ioos:station:SCCF:11:1,2019-01-06T20:00:00Z,26.4679,-82.0631,1.112,30.59,1111122 
SCCF RECON,ioos:station:SCCF:11:1,2019-01-06T21:00:00Z,26.4679,-82.0631,1.062,30.94,1111122 
SCCF RECON,ioos:station:SCCF:11:1,2019-01-06T22:00:00Z,26.4679,-82.0631,0.984,31.46,1111122 
SCCF RECON,ioos:station:SCCF:11:1,2019-01-06T23:00:00Z,26.4679,-82.0631,0.932,31.7,1111122 
SCCF RECON,ioos:station:SCCF:11:1,2019-01-07T05:00:00Z,26.4679,-82.0631,1.379,31.1,1111122 
SCCF RECON,ioos:station:SCCF:11:1,2019-01-07T06:00:00Z,26.4679,-82.0631,1.371,31.07,1111122 
SCCF RECON,ioos:station:SCCF:11:1,2019-01-07T07:00:00Z,26.4679,-82.0631,1.3,31.12,1111122 
SCCF RECON,ioos:station:SCCF:11:1,2019-01-07T09:00:00Z,26.4679,-82.0631,1.061,31.62,1111122 
SCCF RECON,ioos:station:SCCF:11:1,2019-01-07T10:00:00Z,26.4679,-82.0631,0.944,31.75,1111122 
SCCF RECON,ioos:station:SCCF:11:1,2019-01-07T11:00:00Z,26.4679,-82.0631,0.821,31.93,1111122 
SCCF RECON,ioos:station:SCCF:11:1,2019-01-07T12:00:00Z,26.4679,-82.0631,0.709,32.06,1111122 
SCCF RECON,ioos:station:SCCF:11:1,2019-01-07T13:00:00Z,26.4679,-82.0631,0.629,32.16,1111122 
SCCF RECON,ioos:station:SCCF:11:1,2019-01-07T14:00:00Z,26.4679,-82.0631,0.64,31.71,1111122 
SCCF RECON,ioos:station:SCCF:11:1,2019-01-07T15:00:00Z,26.4679,-82.0631,0.769,31.93,1111122 
SCCF RECON,ioos:station:SCCF:11:1,2019-01-07T16:00:00Z,26.4679,-82.0631,0.922,31.22,1111122 
SCCF RECON,ioos:station:SCCF:11:1,2019-01-07T17:00:00Z,26.4679,-82.0631,1.05,31.22,1111122 
SCCF RECON,ioos:station:SCCF:11:1,2019-01-07T18:00:00Z,26.4679,-82.0631,1.138,31.29,1111122 
SCCF RECON,ioos:station:SCCF:11:1,2019-01-07T19:00:00Z,26.4679,-82.0631,1.201,31.34,1111122 
SCCF RECON,ioos:station:SCCF:11:1,2019-01-07T20:00:00Z,26.4679,-82.0631,1.21,31.36,1111122 
SCCF RECON,ioos:station:SCCF:11:1,2019-01-07T21:00:00Z,26.4679,-82.0631,1.189,31.4,1111122 
SCCF RECON,ioos:station:SCCF:11:1,2019-01-07T22:00:00Z,26.4679,-82.0631,1.119,31.32,1111122 
SCCF RECON,ioos:station:SCCF:11:1,2019-01-07T23:00:00Z,26.4679,-82.0631,1.05,31.35,1111122 
SCCF RECON,ioos:station:SCCF:11:1,2019-01-08T05:00:00Z,26.4679,-82.0631,1.359,31.08,1111122 
SCCF RECON,ioos:station:SCCF:11:1,2019-01-08T06:00:00Z,26.4679,-82.0631,1.37,31.12,1111122 
SCCF RECON,ioos:station:SCCF:11:1,2019-01-08T07:00:00Z,26.4679,-82.0631,1.34,31.16,1111122 
SCCF RECON,ioos:station:SCCF:11:1,2019-01-08T08:00:00Z,26.4679,-82.0631,1.25,31.17,1111122 
SCCF RECON,ioos:station:SCCF:11:1,2019-01-08T09:00:00Z,26.4679,-82.0631,1.14,31.35,1111122 
SCCF RECON,ioos:station:SCCF:11:1,2019-01-08T10:00:00Z,26.4679,-82.0631,1.013,31.58,1111122 
SCCF RECON,ioos:station:SCCF:11:1,2019-01-08T11:00:00Z,26.4679,-82.0631,0.89,31.78,1111122 
SCCF RECON,ioos:station:SCCF:11:1,2019-01-08T12:00:00Z,26.4679,-82.0631,0.78,31.9,1111122 
SCCF RECON,ioos:station:SCCF:11:1,2019-01-08T13:00:00Z,26.4679,-82.0631,0.692,32.0,1111122 
SCCF RECON,ioos:station:SCCF:11:1,2019-01-08T14:00:00Z,26.4679,-82.0631,0.66,32.06,1111122 
SCCF RECON,ioos:station:SCCF:11:1,2019-01-08T15:00:00Z,26.4679,-82.0631,0.746,31.94,1111122 
SCCF RECON,ioos:station:SCCF:11:1,2019-01-08T16:00:00Z,26.4679,-82.0631,0.91,31.37,1111122 
SCCF RECON,ioos:station:SCCF:11:1,2019-01-08T17:00:00Z,26.4679,-82.0631,1.049,30.64,1111122 
SCCF RECON,ioos:station:SCCF:11:1,2019-01-08T18:00:00Z,26.4679,-82.0631,1.144,31.2,1111122 
SCCF RECON,ioos:station:SCCF:11:1,2019-01-08T19:00:00Z,26.4679,-82.0631,1.23,31.32,1111122 
SCCF RECON,ioos:station:SCCF:11:1,2019-01-08T20:00:00Z,26.4679,-82.0631,1.28,31.42,1111122 
SCCF RECON,ioos:station:SCCF:11:1,2019-01-08T21:00:00Z,26.4679,-82.0631,1.28,31.45,1111122 
SCCF RECON,ioos:station:SCCF:11:1,2019-01-08T22:00:00Z,26.4679,-82.0631,1.207,31.27,1111122 
SCCF RECON,ioos:station:SCCF:11:1,2019-01-08T23:00:00Z,26.4679,-82.0631,1.13,31.26,1111122 
SCCF RECON,ioos:station:SCCF:11:1,2019-01-09T05:00:00Z,26.4679,-82.0631,1.355,31.54,1111122 
SCCF RECON,ioos:station:SCCF:11:1,2019-01-09T06:00:00Z,26.4679,-82.0631,1.39,31.63,1111122 
SCCF RECON,ioos:station:SCCF:11:1,2019-01-09T07:00:00Z,26.4679,-82.0631,1.373,31.04,1111122 
SCCF RECON,ioos:station:SCCF:11:1,2019-01-09T08:00:00Z,26.4679,-82.0631,1.318,31.19,1111122 
SCCF RECON,ioos:station:SCCF:11:1,2019-01-09T09:00:00Z,26.4679,-82.0631,1.2,31.24,1111122 
SCCF RECON,ioos:station:SCCF:11:1,2019-01-09T10:00:00Z,26.4679,-82.0631,1.069,31.32,1111122 
SCCF RECON,ioos:station:SCCF:11:1,2019-01-09T11:00:00Z,26.4679,-82.0631,0.939,31.46,1111122 
SCCF RECON,ioos:station:SCCF:11:1,2019-01-09T12:00:00Z,26.4679,-82.0631,0.81,31.53,1111122 
SCCF RECON,ioos:station:SCCF:11:1,2019-01-09T13:00:00Z,26.4679,-82.0631,0.693,31.63,1111122 
SCCF RECON,ioos:station:SCCF:11:1,2019-01-09T14:00:00Z,26.4679,-82.0631,0.62,31.67,1111122 
SCCF RECON,ioos:station:SCCF:11:1,2019-01-09T15:00:00Z,26.4679,-82.0631,0.597,31.33,1111122 
SCCF RECON,ioos:station:SCCF:11:1,2019-01-09T18:00:00Z,26.4679,-82.0631,0.94,31.1,1111122 
SCCF RECON,ioos:station:SCCF:11:1,2019-01-09T19:00:00Z,26.4679,-82.0631,1.038,31.08,1111122 
SCCF RECON,ioos:station:SCCF:11:1,2019-01-09T20:00:00Z,26.4679,-82.0631,1.099,31.03,1111122 
SCCF RECON,ioos:station:SCCF:11:1,2019-01-09T21:00:00Z,26.4679,-82.0631,1.103,31.02,1111122 
SCCF RECON,ioos:station:SCCF:11:1,2019-01-09T22:00:00Z,26.4679,-82.0631,1.042,30.97,1111122 
SCCF RECON,ioos:station:SCCF:11:1,2019-01-09T23:00:00Z,26.4679,-82.0631,1.002,31.03,1111122 
SCCF RECON,ioos:station:SCCF:11:1,2019-01-10T05:00:00Z,26.4679,-82.0631,1.121,31.15,1111122 
SCCF RECON,ioos:station:SCCF:11:1,2019-01-10T06:00:00Z,26.4679,-82.0631,1.201,31.17,1111122 
SCCF RECON,ioos:station:SCCF:11:1,2019-01-10T07:00:00Z,26.4679,-82.0631,1.246,31.2,1111122 
SCCF RECON,ioos:station:SCCF:11:1,2019-01-10T08:00:00Z,26.4679,-82.0631,1.21,31.17,1111122 
SCCF RECON,ioos:station:SCCF:11:1,2019-01-10T09:00:00Z,26.4679,-82.0631,1.125,31.19,1111122 
SCCF RECON,ioos:station:SCCF:11:1,2019-01-10T10:00:00Z,26.4679,-82.0631,1.003,31.2,1111122 
SCCF RECON,ioos:station:SCCF:11:1,2019-01-10T11:00:00Z,26.4679,-82.0631,0.894,31.36,1111122 
SCCF RECON,ioos:station:SCCF:11:1,2019-01-10T12:00:00Z,26.4679,-82.0631,0.794,31.35,1111122 
SCCF RECON,ioos:station:SCCF:11:1,2019-01-10T13:00:00Z,26.4679,-82.0631,0.707,31.41,1111122 
SCCF RECON,ioos:station:SCCF:11:1,2019-01-10T14:00:00Z,26.4679,-82.0631,0.622,31.48,1111122 
SCCF RECON,ioos:station:SCCF:11:1,2019-01-10T15:00:00Z,26.4679,-82.0631,0.569,31.57,1111122 
SCCF RECON,ioos:station:SCCF:11:1,2019-01-10T16:00:00Z,26.4679,-82.0631,0.585,31.38,1111122 
SCCF RECON,ioos:station:SCCF:11:1,2019-01-10T17:00:00Z,26.4679,-82.0631,0.719,31.57,1111122 
SCCF RECON,ioos:station:SCCF:11:1,2019-01-10T18:00:00Z,26.4679,-82.0631,0.852,31.52,1111122 
SCCF RECON,ioos:station:SCCF:11:1,2019-01-10T19:00:00Z,26.4679,-82.0631,0.969,31.59,1111122 
SCCF RECON,ioos:station:SCCF:11:1,2019-01-10T20:00:00Z,26.4679,-82.0631,1.049,31.52,1111122 
SCCF RECON,ioos:station:SCCF:11:1,2019-01-10T21:00:00Z,26.4679,-82.0631,1.109,30.8,1111122 
SCCF RECON,ioos:station:SCCF:11:1,2019-01-10T22:00:00Z,26.4679,-82.0631,1.13,30.27,1111122 
SCCF RECON,ioos:station:SCCF:11:1,2019-01-10T23:00:00Z,26.4679,-82.0631,1.11,31.76,1111122 
SCCF RECON,ioos:station:SCCF:11:1,2019-01-11T05:00:00Z,26.4679,-82.0631,1.11,31.81,1111122 
SCCF RECON,ioos:station:SCCF:11:1,2019-01-11T06:00:00Z,26.4679,-82.0631,1.19,31.52,1111122 
SCCF RECON,ioos:station:SCCF:11:1,2019-01-11T07:00:00Z,26.4679,-82.0631,1.24,31.12,1111122 
SCCF RECON,ioos:station:SCCF:11:1,2019-01-11T08:00:00Z,26.4679,-82.0631,1.24,31.09,1111122 
SCCF RECON,ioos:station:SCCF:11:1,2019-01-11T09:00:00Z,26.4679,-82.0631,1.211,31.12,1111122 
SCCF RECON,ioos:station:SCCF:11:1,2019-01-11T10:00:00Z,26.4679,-82.0631,1.172,31.78,1111122 
SCCF RECON,ioos:station:SCCF:11:1,2019-01-11T11:00:00Z,26.4679,-82.0631,1.098,31.79,1111122 
SCCF RECON,ioos:station:SCCF:11:1,2019-01-11T12:00:00Z,26.4679,-82.0631,0.99,31.85,1111122 
SCCF RECON,ioos:station:SCCF:11:1,2019-01-11T13:00:00Z,26.4679,-82.0631,0.891,31.82,1111122 
SCCF RECON,ioos:station:SCCF:11:1,2019-01-11T14:00:00Z,26.4679,-82.0631,0.82,31.82,1111122 
SCCF RECON,ioos:station:SCCF:11:1,2019-01-11T15:00:00Z,26.4679,-82.0631,0.771,31.84,1111122 
SCCF RECON,ioos:station:SCCF:11:1,2019-01-11T17:00:00Z,26.4679,-82.0631,0.856,31.77,1111122 
SCCF RECON,ioos:station:SCCF:11:1,2019-01-11T18:00:00Z,26.4679,-82.0631,0.97,31.67,1111122 
SCCF RECON,ioos:station:SCCF:11:1,2019-01-11T20:00:00Z,26.4679,-82.0631,1.153,31.55,1111122 
SCCF RECON,ioos:station:SCCF:11:1,2019-01-11T22:00:00Z,26.4679,-82.0631,1.255,31.09,1111122 
SCCF RECON,ioos:station:SCCF:11:1,2019-01-12T05:00:00Z,26.4679,-82.0631,1.05,31.66,1111122 
SCCF RECON,ioos:station:SCCF:11:1,2019-01-12T06:00:00Z,26.4679,-82.0631,1.12,31.7,1111122 
SCCF RECON,ioos:station:SCCF:11:1,2019-01-12T07:00:00Z,26.4679,-82.0631,1.181,31.48,1111122 
SCCF RECON,ioos:station:SCCF:11:1,2019-01-12T08:00:00Z,26.4679,-82.0631,1.219,31.27,1111122 
SCCF RECON,ioos:station:SCCF:11:1,2019-01-12T09:00:00Z,26.4679,-82.0631,1.232,31.2,1111122 
SCCF RECON,ioos:station:SCCF:11:1,2019-01-12T10:00:00Z,26.4679,-82.0631,1.23,31.17,1111122 
SCCF RECON,ioos:station:SCCF:11:1,2019-01-12T11:00:00Z,26.4679,-82.0631,1.177,31.29,1111122 
SCCF RECON,ioos:station:SCCF:11:1,2019-01-12T12:00:00Z,26.4679,-82.0631,1.08,31.45,1111122 
SCCF RECON,ioos:station:SCCF:11:1,2019-01-12T13:00:00Z,26.4679,-82.0631,0.99,31.62,1111122 
SCCF RECON,ioos:station:SCCF:11:1,2019-01-12T14:00:00Z,26.4679,-82.0631,0.917,31.73,1111122 
SCCF RECON,ioos:station:SCCF:11:1,2019-01-12T15:00:00Z,26.4679,-82.0631,0.85,31.71,1111122 
SCCF RECON,ioos:station:SCCF:11:1,2019-01-12T16:00:00Z,26.4679,-82.0631,0.83,31.81,1111122 
SCCF RECON,ioos:station:SCCF:11:1,2019-01-12T17:00:00Z,26.4679,-82.0631,0.88,31.75,1111122 
SCCF RECON,ioos:station:SCCF:11:1,2019-01-12T18:00:00Z,26.4679,-82.0631,0.99,31.32,1111122 
SCCF RECON,ioos:station:SCCF:11:1,2019-01-12T19:00:00Z,26.4679,-82.0631,1.087,31.27,1111122 
SCCF RECON,ioos:station:SCCF:11:1,2019-01-12T20:00:00Z,26.4679,-82.0631,1.18,31.26,1111122 
SCCF RECON,ioos:station:SCCF:11:1,2019-01-12T21:00:00Z,26.4679,-82.0631,1.278,31.15,1111122 
SCCF RECON,ioos:station:SCCF:11:1,2019-01-12T22:00:00Z,26.4679,-82.0631,1.34,31.16,1111122 
SCCF RECON,ioos:station:SCCF:11:1,2019-01-13T05:00:00Z,26.4679,-82.0631,1.04,31.55,1111122 
SCCF RECON,ioos:station:SCCF:11:1,2019-01-13T06:00:00Z,26.4679,-82.0631,1.05,31.46,1111122 
SCCF RECON,ioos:station:SCCF:11:1,2019-01-13T07:00:00Z,26.4679,-82.0631,1.101,31.52,1111122 
SCCF RECON,ioos:station:SCCF:11:1,2019-01-13T08:00:00Z,26.4679,-82.0631,1.178,31.7,1111122 
SCCF RECON,ioos:station:SCCF:11:1,2019-01-13T09:00:00Z,26.4679,-82.0631,1.224,31.32,1111122 
SCCF RECON,ioos:station:SCCF:11:1,2019-01-13T10:00:00Z,26.4679,-82.0631,1.264,31.07,1111122 
SCCF RECON,ioos:station:SCCF:11:1,2019-01-13T11:00:00Z,26.4679,-82.0631,1.25,30.94,1111122 
SCCF RECON,ioos:station:SCCF:11:1,2019-01-13T12:00:00Z,26.4679,-82.0631,1.22,30.96,1111122 
SCCF RECON,ioos:station:SCCF:11:1,2019-01-13T13:00:00Z,26.4679,-82.0631,1.125,31.47,1111122 
SCCF RECON,ioos:station:SCCF:11:1,2019-01-13T14:00:00Z,26.4679,-82.0631,1.03,31.56,1111122 
SCCF RECON,ioos:station:SCCF:11:1,2019-01-13T15:00:00Z,26.4679,-82.0631,0.954,31.6,1111122 
SCCF RECON,ioos:station:SCCF:11:1,2019-01-13T16:00:00Z,26.4679,-82.0631,0.916,31.62,1111122 
SCCF RECON,ioos:station:SCCF:11:1,2019-01-13T17:00:00Z,26.4679,-82.0631,0.9,31.51,1111122 
SCCF RECON,ioos:station:SCCF:11:1,2019-01-13T18:00:00Z,26.4679,-82.0631,0.93,31.55,1111122 
SCCF RECON,ioos:station:SCCF:11:1,2019-01-13T19:00:00Z,26.4679,-82.0631,0.99,31.59,1111122 
SCCF RECON,ioos:station:SCCF:11:1,2019-01-13T20:00:00Z,26.4679,-82.0631,1.09,31.43,1111122 
SCCF RECON,ioos:station:SCCF:11:1,2019-01-13T21:00:00Z,26.4679,-82.0631,1.191,31.22,1111122 
SCCF RECON,ioos:station:SCCF:11:1,2019-01-13T22:00:00Z,26.4679,-82.0631,1.27,31.12,1111122 
SCCF RECON,ioos:station:SCCF:11:1,2019-01-14T05:00:00Z,26.4679,-82.0631,0.949,31.54,1111122 
SCCF RECON,ioos:station:SCCF:11:1,2019-01-14T06:00:00Z,26.4679,-82.0631,0.914,31.57,1111122 
SCCF RECON,ioos:station:SCCF:11:1,2019-01-14T07:00:00Z,26.4679,-82.0631,0.928,31.48,1111122 
SCCF RECON,ioos:station:SCCF:11:1,2019-01-14T08:00:00Z,26.4679,-82.0631,0.989,31.52,1111122 
SCCF RECON,ioos:station:SCCF:11:1,2019-01-14T09:00:00Z,26.4679,-82.0631,1.079,31.5,1111122 
SCCF RECON,ioos:station:SCCF:11:1,2019-01-14T10:00:00Z,26.4679,-82.0631,1.11,31.54,1111122 
SCCF RECON,ioos:station:SCCF:11:1,2019-01-14T11:00:00Z,26.4679,-82.0631,1.13,31.62,1111122 
SCCF RECON,ioos:station:SCCF:11:1,2019-01-14T12:00:00Z,26.4679,-82.0631,1.128,31.55,1111122 
SCCF RECON,ioos:station:SCCF:11:1,2019-01-14T13:00:00Z,26.4679,-82.0631,1.087,31.56,1111122 
SCCF RECON,ioos:station:SCCF:11:1,2019-01-14T14:00:00Z,26.4679,-82.0631,1.03,31.56,1111122 
SCCF RECON,ioos:station:SCCF:11:1,2019-01-14T15:00:00Z,26.4679,-82.0631,0.977,31.56,1111122 
SCCF RECON,ioos:station:SCCF:11:1,2019-01-14T16:00:00Z,26.4679,-82.0631,0.932,31.58,1111122 
SCCF RECON,ioos:station:SCCF:11:1,2019-01-14T17:00:00Z,26.4679,-82.0631,0.9,31.64,1111122 
SCCF RECON,ioos:station:SCCF:11:1,2019-01-14T18:00:00Z,26.4679,-82.0631,0.86,31.63,1111122 
SCCF RECON,ioos:station:SCCF:11:1,2019-01-14T19:00:00Z,26.4679,-82.0631,0.861,31.64,1111122 
SCCF RECON,ioos:station:SCCF:11:1,2019-01-14T20:00:00Z,26.4679,-82.0631,0.92,31.64,1111122 
SCCF RECON,ioos:station:SCCF:11:1,2019-01-14T21:00:00Z,26.4679,-82.0631,1.008,31.64,1111122 
SCCF RECON,ioos:station:SCCF:11:1,2019-01-14T22:00:00Z,26.4679,-82.0631,1.081,31.69,1111122 
SCCF RECON,ioos:station:SCCF:11:1,2019-01-15T05:00:00Z,26.4679,-82.0631,0.82,31.82,1111122 
SCCF RECON,ioos:station:SCCF:11:1,2019-01-15T06:00:00Z,26.4679,-82.0631,0.74,31.85,1111122 
SCCF RECON,ioos:station:SCCF:11:1,2019-01-15T07:00:00Z,26.4679,-82.0631,0.681,31.85,1111122 